Karlovy Vary, Czech Republic

5:31 AM CEST on May 28, 2017 (GMT +0200)
Karlovy Vary

Weather History for LKKV - November, 2013

Change the Weather History Date:

Thursday, November 14, 2013

  Actual Average (EDQM) Record (EDQM)
Temperature  
Mean Temperature 29 °F -  
Max Temperature 35 °F 38 °F 60 °F (2010)
Min Temperature 23 °F 32 °F 19 °F (2016)
Degree Days  
Heating Degree Days 36    
Moisture  
Dew Point 28 °F    
Average Humidity 86    
Maximum Humidity 100    
Minimum Humidity 70    
Precipitation  
Precipitation 0.00 in - - ()
Sea Level Pressure  
Sea Level Pressure 30.13 in    
Wind  
Wind Speed 3 mph ()    
Max Wind Speed 9 mph    
Max Gust Speed -    
Visibility 6.0 miles    
Events      
Averages and records for this station are not official NWS values.
T = Trace of Precipitation, MM = Missing Value Source: Averaged Metar Reports

Daily Weather History Graph

Daily Weather History Graph

Search for Another Location

Airport or City:

Trip Planner

Search our weather history database for the weather conditions in past years. The results will help you decide how hot, cold, wet, or windy it might be!

Date:

Astronomy

Nov. 14, 2013 Rise Set
Actual Time 7:20 AM CET 4:24 PM CET
Civil Twilight 6:44 AM CET 5:00 PM CET
Nautical Twilight 6:05 AM CET 5:39 PM CET
Astronomical Twilight 5:26 AM CET 6:17 PM CET
Moon 2:52 PM CET (11/14) 3:39 AM CET (11/14)
Length of Visible Light 10h 15m
Length of Day
9h 04m
Waxing Gibbous, 90% of the Moon is Illuminated
Nov 14
Waxing Gibbous
Nov 17
Full
Nov 25
Last Quarter
Dec 3
New
Dec 9
First Quarter

Hourly Weather History & Observations

Time (CET) Temp. Windchill Dew Point Humidity Pressure Visibility Wind Dir Wind Speed Gust Speed Precip Events Conditions
12:00 AM 28.4 °F - 26.6 °F 93% 30.33 in - Variable 2.3 mph - N/A   Clear
1:00 AM 26.6 °F - 24.8 °F 93% 30.30 in - SSE 2.3 mph - N/A   Clear
2:00 AM 26.6 °F - 24.8 °F 93% 30.27 in - South 2.3 mph - N/A   Clear
3:00 AM 26.6 °F - 24.8 °F 93% 30.27 in - SE 2.3 mph - N/A   Clear
4:00 AM 24.8 °F - 24.8 °F 100% 30.24 in - SE 2.3 mph - N/A   Clear
5:00 AM 23.0 °F - 23.0 °F 100% 30.21 in - Variable 1.2 mph - N/A   Clear
6:00 AM 24.8 °F - 24.8 °F 100% 30.18 in 6.2 mi SE 2.3 mph - N/A   Mostly Cloudy
7:00 AM 26.6 °F 22.6 °F 24.8 °F 93% 30.18 in 6.2 mi ESE 3.5 mph - N/A   Scattered Clouds
7:30 AM 28.4 °F 24.6 °F 26.6 °F 93% 30.18 in 6.2 mi ESE 3.5 mph - N/A   Scattered Clouds
8:00 AM 28.4 °F 24.6 °F 26.6 °F 93% 30.18 in 6.2 mi ESE 3.5 mph - N/A   Mostly Cloudy
8:30 AM 32.0 °F 27.5 °F 28.4 °F 87% 30.18 in 6.2 mi East 4.6 mph - N/A   Mostly Cloudy
9:00 AM 32.0 °F 28.7 °F 30.2 °F 93% 30.18 in 6.2 mi ESE 3.5 mph - N/A   Mostly Cloudy
9:30 AM 33.8 °F 29.6 °F 30.2 °F 87% 30.15 in 6.2 mi ESE 4.6 mph - N/A   Mostly Cloudy
10:00 AM 33.8 °F 26.4 °F 30.2 °F 87% 30.15 in 6.2 mi ESE 9.2 mph - N/A   Mostly Cloudy
10:30 AM 35.6 °F 28.6 °F 28.4 °F 75% 30.15 in 6.2 mi ESE 9.2 mph - N/A   Mostly Cloudy
11:00 AM 35.6 °F 29.2 °F 28.4 °F 75% 30.12 in 6.2 mi SE 8.1 mph - N/A   Mostly Cloudy
11:30 AM 35.6 °F 29.9 °F 28.4 °F 75% 30.12 in 6.2 mi SE 6.9 mph - N/A   Mostly Cloudy
12:00 PM 35.6 °F 30.7 °F 28.4 °F 75% 30.12 in 6.2 mi SE 5.8 mph - N/A   Mostly Cloudy
12:30 PM 35.6 °F 29.9 °F 28.4 °F 75% 30.09 in 6.2 mi SE 6.9 mph - N/A   Mostly Cloudy
1:00 PM 35.6 °F 28.6 °F 26.6 °F 70% 30.09 in 6.2 mi SE 9.2 mph - N/A   Scattered Clouds
1:30 PM 35.6 °F 30.7 °F 26.6 °F 70% 30.09 in 6.2 mi SE 5.8 mph - N/A   Scattered Clouds
2:00 PM 35.6 °F 29.9 °F 28.4 °F 75% 30.06 in 6.2 mi SE 6.9 mph - N/A   Scattered Clouds
2:30 PM 35.6 °F 30.7 °F 28.4 °F 75% 30.06 in 6.2 mi SE 5.8 mph - N/A   Scattered Clouds
3:00 PM 35.6 °F 31.7 °F 28.4 °F 75% 30.06 in 6.2 mi SE 4.6 mph - N/A   Scattered Clouds
3:30 PM 33.8 °F 30.8 °F 28.4 °F 81% 30.06 in 6.2 mi SE 3.5 mph - N/A   Scattered Clouds
4:00 PM 33.8 °F - 28.4 °F 81% 30.06 in 6.2 mi East 2.3 mph - N/A   Scattered Clouds
4:30 PM 33.8 °F - 28.4 °F 81% 30.06 in 6.2 mi ESE 2.3 mph - N/A   Mostly Cloudy
5:00 PM 33.8 °F - 28.4 °F 81% 30.06 in 6.2 mi ESE 2.3 mph - N/A   Mostly Cloudy
5:30 PM 33.8 °F - 28.4 °F 81% 30.06 in 6.2 mi SE 2.3 mph - N/A   Mostly Cloudy
6:00 PM 33.8 °F - 28.4 °F 81% 30.06 in 6.2 mi SE 2.3 mph - N/A   Overcast
6:30 PM 33.8 °F - 28.4 °F 81% 30.06 in 6.2 mi SE 2.3 mph - N/A   Overcast
7:00 PM 33.8 °F - 30.2 °F 87% 30.06 in 6.2 mi Calm Calm - N/A   Overcast
7:30 PM 32.0 °F - 30.2 °F 93% 30.06 in 6.2 mi Calm Calm - N/A   Overcast
8:00 PM 32.0 °F - 30.2 °F 93% 30.06 in 6.2 mi Calm Calm - N/A   Mostly Cloudy
8:46 PM 32.0 °F - 30.2 °F 93% 30.06 in 5.0 mi NW 2.3 mph - N/A   Overcast
9:00 PM 32.0 °F - 30.2 °F 93% 30.06 in 5.0 mi NNW 1.2 mph - N/A   Overcast
10:00 PM 32.0 °F - 30.2 °F 93% 30.09 in 5.0 mi Variable 2.3 mph - N/A   Overcast
11:00 PM 32.0 °F - 30.2 °F 93% 30.09 in 4.3 mi WNW 2.3 mph - N/A   Overcast